User: anonymous   Login
Location: Unspecified
(0.0000°N, 0.0000°E)
Time: 09:34:41
(UTC+00:00)
Language:

FR-1 - Orbit

View from above orbital plane
View from above orbital plane
View from above satellite
View from above satellite

Ground track
Ground track

The orbit data is extracted from the following two-line orbital elements,

1  1814U 65101A   17295.75891794 +.00000160 +00000-0 +31763-4 0  9992
2  1814 075.8699 009.6918 0006792 328.1841 031.8927 14.66440539592552
Epoch (UTC): 22 October 2017 18:12:50
Eccentricity: 0.0006792
inclination: 75.8699°
perigee height: 667 km
apogee height: 677 km
right ascension of ascending node: 9.6918°
argument of perigee: 328.1841°
revolutions per day: 14.66440539
mean anomaly at epoch: 31.8927°
orbit number at epoch: 59255

The dashed part of the orbit path shows where the satellite is in the earth's shadow,  

DLR